Tracking 17844 objects as of 25-August-2016
HD Live streaming from Space Station
objects crossing your sky now

YAOGAN 14

Track YAOGAN 14 now!
10-day predictions
YAOGAN 14 is classified as:


NORAD ID: 38257
Int'l Code: 2012-021A
Perigee: 477.7 km
Apogee: 487.5 km
Inclination: 97.3 °
Period: 94.1 minutes
Semi major axis: 6853 km
RCS: 5.8167 m2 (large)
Launch date: May 10, 2012
Source: People's Republic of China (PRC)
Launch site: Taiyaun Space Center, China (TSC)

YAOGAN 14 (Remote Sensing Satellite 14) is an optical reconnaisance satellite.
Your satellite tracking list
Your tracking list is empty





NASA's NSSDC Master Catalog

Two Line Element Set (TLE):
1 38257U 12021A   16238.18780184  .00001876  00000-0  66881-4 0  9993
2 38257  97.2691   7.2861 0007157 313.0180 169.2895 15.30115364239790
Source of the keplerian elements: AFSPC

N2YO: 635